Snel-info
Kleurcode:
Groen
Er mag gevlogen worden.
Laatste update: 06/02/2018
Kleurcode informatie

Grasmaaien:

Geen maaibeurten gepland.

Volgende vliegdagen:

  • di 1 mei : Feest vd Arbeid
  • do 10 mei : O.H. Hemelvaart
  • vr 11 mei : Brugdag
Alle extra vliegdagen

Weersituatie op PMF:

1_Jets_Over_Pampa_2011__178_Dirk.jpg

Huidige weersituatie

Huidig weerbeeld in Kleine Brogel, Belgium
Huidige wind in Kleine Brogel, Belgium

Dit is het bericht voor Kleine Brogel, Belgium en werd 34 minuten geleden gemaakt.
De wind waaide met een snelheid van 4.1 meter per seconde (14.8 km/h) uit het zuidwesten (230°).
De temperatuur was 28 °C. De gevoelstemperatuur was 27 °C. De atmosferische druk was 1023 hPa. De relative luchtvochtigheid was 34.7%. Het algemene zicht was meer dan 10 kilometer.

De onbewerkte METAR gegevens waarop dit bericht is gebaseerd zijn:
EBBL 201155Z AUTO 23008KT 9999 NCD 28/11 Q1023 BLU


Opmerking:
De wind blijkt op PMF meestal iets krachtiger te waaien dan op Kleine Brogel. De windrichting klopt dan weer wel.




KMI

De weersvoorspellingen van het KMI vind je via deze link.


Buienradar

Op www.buienradar.nl kun je zelf zien waar het nu en de komende uren regent.